EVA235 RPLC-RCTP

Flight info

Callsign EVA235
Flight time 1h 40m
Altitude 40000
Route RIANO4R RIANO TR25 CAB B462 LAO M646 POTIB Q14 TNN TNN1A
Aircraft A333/H-SDE3GHIJ2J3J5M1RVWXY/LB2D1

Departure

Time 2026-05-04 16:02
Airport Clark International Airport / Clark Air Base (RPLC)

Arrival

Time 2026-05-04 17:42
Airport Taiwan Taoyuan International Airport (RCTP)
Time Latitude Longitude Altitude Speed Heading
2026-05-04 15:38 15.19357 120.56131 440 ft 0 kts 111°
2026-05-04 15:40 15.19317 120.55922 431 ft 0 kts 290°
2026-05-04 15:45 15.19312 120.55935 424 ft 4 kts 290°
2026-05-04 15:46 15.19303 120.55961 424 ft 4 kts 290°
2026-05-04 15:46 15.19295 120.55982 424 ft 4 kts 308°
2026-05-04 15:46 15.19276 120.55994 424 ft 4 kts
2026-05-04 15:46 15.19252 120.55986 424 ft 4 kts 21°
2026-05-04 15:47 15.19226 120.55976 428 ft 4 kts 21°
2026-05-04 15:47 15.19201 120.55966 424 ft 4 kts 21°
2026-05-04 15:47 15.19178 120.55957 424 ft 4 kts 14°
2026-05-04 15:47 15.19154 120.55957 424 ft 4 kts 326°
2026-05-04 15:48 15.19138 120.55977 427 ft 4 kts 292°
2026-05-04 15:48 15.19128 120.56000 424 ft 1 kts 303°
2026-05-04 15:48 15.19122 120.56009 424 ft 0 kts 311°
2026-05-04 15:49 15.19123 120.56005 424 ft 3 kts 294°
2026-05-04 15:49 15.19125 120.56001 424 ft 0 kts 293°
2026-05-04 15:49 15.19104 120.56050 436 ft 1 kts 293°
2026-05-04 15:50 15.19104 120.56040 433 ft 4 kts 264°
2026-05-04 15:50 15.19050 120.55997 435 ft 14 kts 199°
2026-05-04 15:50 15.18958 120.55961 428 ft 15 kts 202°
2026-05-04 15:50 15.18860 120.55920 427 ft 16 kts 201°
2026-05-04 15:51 15.18751 120.55878 428 ft 17 kts 200°
2026-05-04 15:51 15.18636 120.55833 430 ft 18 kts 201°
2026-05-04 15:51 15.18515 120.55784 427 ft 19 kts 201°
2026-05-04 15:51 15.18396 120.55738 432 ft 18 kts 200°
2026-05-04 15:52 15.18274 120.55690 426 ft 19 kts 202°
2026-05-04 15:52 15.18150 120.55639 429 ft 14 kts 200°
2026-05-04 15:52 15.18065 120.55607 431 ft 14 kts 200°
2026-05-04 15:52 15.17971 120.55570 433 ft 14 kts 201°
2026-05-04 15:53 15.17898 120.55540 431 ft 12 kts 202°
2026-05-04 15:53 15.17820 120.55509 428 ft 13 kts 200°
2026-05-04 15:53 15.17734 120.55476 428 ft 13 kts 200°
2026-05-04 15:53 15.17648 120.55447 430 ft 11 kts 178°
2026-05-04 15:54 15.17595 120.55502 428 ft 12 kts 120°
2026-05-04 15:54 15.17554 120.55577 428 ft 11 kts 119°
2026-05-04 15:54 15.17532 120.55619 431 ft 6 kts 119°
2026-05-04 15:54 15.17520 120.55640 428 ft 0 kts 119°
2026-05-04 15:55 15.17516 120.55648 426 ft 1 kts 119°
2026-05-04 16:00 15.17510 120.55659 424 ft 6 kts 119°
2026-05-04 16:00 15.17484 120.55708 429 ft 9 kts 117°
2026-05-04 16:01 15.17463 120.55766 430 ft 6 kts 107°
2026-05-04 16:01 15.17470 120.55796 434 ft 5 kts 48°
2026-05-04 16:01 15.17507 120.55813 427 ft 7 kts 21°
2026-05-04 16:01 15.17646 120.55869 434 ft 49 kts 21°
2026-05-04 16:02 15.18161 120.56071 429 ft 108 kts 21°
2026-05-04 16:02 15.19025 120.56413 429 ft 156 kts 21°
2026-05-04 16:02 15.21224 120.57312 1471 ft 171 kts 34°
2026-05-04 16:03 15.21979 120.58244 1960 ft 179 kts 63°
2026-05-04 16:03 15.22568 120.59449 2207 ft 203 kts 65°
2026-05-04 16:03 15.23255 120.60852 2470 ft 231 kts 63°
2026-05-04 16:03 15.24051 120.62364 2939 ft 248 kts 62°
2026-05-04 16:04 15.24929 120.63957 3613 ft 256 kts 60°
2026-05-04 16:04 15.26753 120.67184 5224 ft 263 kts 60°
2026-05-04 16:04 15.27676 120.68803 6110 ft 264 kts 59°
2026-05-04 16:05 15.28616 120.70447 6979 ft 265 kts 60°
2026-05-04 16:05 15.29566 120.72110 7806 ft 268 kts 60°
2026-05-04 16:05 15.31488 120.75472 9496 ft 275 kts 60°
2026-05-04 16:06 15.32462 120.77176 10237 ft 281 kts 60°
2026-05-04 16:06 15.35372 120.82231 11199 ft 328 kts 59°
2026-05-04 16:07 15.37058 120.84956 11973 ft 340 kts 58°
2026-05-04 16:07 15.41066 120.91201 13884 ft 355 kts 57°
2026-05-04 16:08 15.42443 120.93348 14461 ft 359 kts 57°
2026-05-04 16:08 15.47432 120.99186 16244 ft 371 kts 35°
2026-05-04 16:09 15.52271 121.01150 17381 ft 381 kts
2026-05-04 16:09 15.57609 121.00932 18478 ft 388 kts 352°
2026-05-04 16:10 15.62963 120.99940 19420 ft 395 kts 349°
2026-05-04 16:11 15.71157 120.98296 20780 ft 405 kts 349°
2026-05-04 16:11 15.73965 120.97766 21267 ft 408 kts 349°
2026-05-04 16:12 15.82425 120.96219 22691 ft 415 kts 349°
2026-05-04 16:12 15.90067 120.94834 23838 ft 423 kts 349°
2026-05-04 16:13 15.96897 120.93591 24725 ft 429 kts 349°
2026-05-04 16:13 16.02815 120.92515 25435 ft 433 kts 349°
2026-05-04 16:14 16.08758 120.91429 26197 ft 437 kts 348°
2026-05-04 16:14 16.14769 120.90332 26962 ft 442 kts 348°
2026-05-04 16:15 16.22912 120.88844 27897 ft 448 kts 348°
2026-05-04 16:16 16.29068 120.87715 28571 ft 452 kts 348°
2026-05-04 16:16 16.38426 120.86004 29541 ft 459 kts 348°
2026-05-04 16:17 16.44737 120.84849 30163 ft 463 kts 348°
2026-05-04 16:18 16.54312 120.83093 31010 ft 467 kts 348°
2026-05-04 16:18 16.57512 120.82507 31304 ft 468 kts 348°
2026-05-04 16:19 16.67135 120.80743 32171 ft 471 kts 347°
2026-05-04 16:19 16.73650 120.79545 32658 ft 474 kts 347°
2026-05-04 16:20 16.83283 120.77775 33937 ft 466 kts 347°
2026-05-04 16:20 16.89632 120.76607 34566 ft 463 kts 347°
2026-05-04 16:21 16.99179 120.74847 35362 ft 463 kts 346°
2026-05-04 16:22 17.05506 120.73681 35881 ft 461 kts 346°
2026-05-04 16:22 17.14943 120.71939 36605 ft 460 kts 346°
2026-05-04 16:23 17.24408 120.70192 37277 ft 461 kts 346°
2026-05-04 16:24 17.37047 120.67865 38280 ft 461 kts 346°
2026-05-04 16:25 17.43349 120.66707 38728 ft 459 kts 346°
2026-05-04 16:26 17.55912 120.64389 39433 ft 458 kts 346°
2026-05-04 16:26 17.65342 120.62648 39925 ft 458 kts 346°
2026-05-04 16:28 17.81111 120.59736 39913 ft 461 kts 346°
2026-05-04 16:29 18.03190 120.55655 39911 ft 461 kts 345°
2026-05-04 16:31 18.19040 120.53154 39910 ft 467 kts 356°
2026-05-04 16:32 18.38514 120.54546 39909 ft 469 kts
2026-05-04 16:33 18.51515 120.55608 39924 ft 468 kts 360°
2026-05-04 16:34 18.61273 120.56388 39928 ft 468 kts 360°
2026-05-04 16:35 18.80707 120.57947 39946 ft 468 kts 360°
2026-05-04 16:36 18.90471 120.58733 39952 ft 468 kts 360°
2026-05-04 16:37 19.00199 120.59516 39979 ft 468 kts 359°
2026-05-04 16:38 19.13168 120.60564 39961 ft 467 kts 359°
2026-05-04 16:39 19.29341 120.61871 39966 ft 467 kts 359°
2026-05-04 16:40 19.42317 120.62923 39970 ft 467 kts 359°
2026-05-04 16:41 19.58502 120.64236 39990 ft 466 kts 359°
2026-05-04 16:43 19.74660 120.65549 39980 ft 467 kts 359°
2026-05-04 16:43 19.84389 120.66342 39982 ft 467 kts 359°
2026-05-04 16:45 20.03821 120.67927 39982 ft 467 kts 359°
2026-05-04 16:46 20.20004 120.69251 39988 ft 467 kts 359°
2026-05-04 16:47 20.32995 120.70315 39988 ft 467 kts 359°
2026-05-04 16:48 20.45948 120.71379 39991 ft 467 kts 359°
2026-05-04 16:49 20.58905 120.72444 39992 ft 467 kts 359°
2026-05-04 16:50 20.71878 120.73512 40020 ft 467 kts 359°
2026-05-04 16:51 20.81573 120.74312 40001 ft 468 kts 359°
2026-05-04 16:52 20.94533 120.75383 40007 ft 468 kts 359°
2026-05-04 16:53 21.04099 120.74773 40010 ft 455 kts 342°
2026-05-04 16:54 21.16404 120.71700 40012 ft 454 kts 340°
2026-05-04 16:55 21.34827 120.66950 40021 ft 454 kts 340°
2026-05-04 16:56 21.50219 120.63010 40020 ft 455 kts 340°
2026-05-04 16:57 21.59405 120.60653 40020 ft 455 kts 340°
2026-05-04 16:58 21.71720 120.57482 40022 ft 455 kts 340°
2026-05-04 17:00 21.90193 120.52721 40031 ft 455 kts 340°
2026-05-04 17:01 22.05566 120.48753 40018 ft 455 kts 340°
2026-05-04 17:02 22.17881 120.45568 40010 ft 455 kts 340°
2026-05-04 17:03 22.26092 120.43442 40004 ft 455 kts 340°
2026-05-04 17:03 22.36319 120.40789 40004 ft 455 kts 340°
2026-05-04 17:04 22.47608 120.37856 39978 ft 455 kts 340°
2026-05-04 17:05 22.59950 120.34645 39984 ft 456 kts 340°
2026-05-04 17:06 22.69157 120.32245 39990 ft 456 kts 340°
2026-05-04 17:07 22.77369 120.30102 40022 ft 456 kts 340°
2026-05-04 17:07 22.84568 120.28220 40042 ft 455 kts 340°
2026-05-04 17:08 22.93800 120.25802 40048 ft 455 kts 340°
2026-05-04 17:09 22.99942 120.24192 40049 ft 455 kts 340°
2026-05-04 17:09 23.06108 120.22575 40046 ft 455 kts 340°
2026-05-04 17:10 23.22041 120.21595 40029 ft 473 kts 360°
2026-05-04 17:11 23.28591 120.22395 39694 ft 480 kts 360°
2026-05-04 17:11 23.35316 120.23205 38385 ft 486 kts 359°
2026-05-04 17:12 23.38689 120.23611 37673 ft 489 kts 359°
2026-05-04 17:12 23.45401 120.24418 35953 ft 483 kts 358°
2026-05-04 17:13 23.55133 120.25592 33898 ft 462 kts 357°
2026-05-04 17:14 23.64623 120.27570 30665 ft 485 kts 16°
2026-05-04 17:14 23.67739 120.29192 29188 ft 498 kts 22°
2026-05-04 17:14 23.73841 120.32803 26873 ft 495 kts 24°
2026-05-04 17:15 23.76829 120.34595 26223 ft 480 kts 24°
2026-05-04 17:15 23.82516 120.37998 25068 ft 453 kts 24°
2026-05-04 17:16 23.87897 120.41208 23958 ft 431 kts 24°
2026-05-04 17:16 23.95598 120.45799 22292 ft 416 kts 24°
2026-05-04 17:17 23.98122 120.47303 21762 ft 416 kts 24°
2026-05-04 17:17 24.05740 120.51853 20180 ft 415 kts 24°
2026-05-04 17:18 24.08283 120.53373 19646 ft 414 kts 24°
2026-05-04 17:18 24.13322 120.56389 18599 ft 412 kts 24°
2026-05-04 17:19 24.18342 120.59396 17460 ft 409 kts 24°
2026-05-04 17:19 24.23283 120.62361 16397 ft 402 kts 24°
2026-05-04 17:20 24.28153 120.65283 15323 ft 397 kts 25°
2026-05-04 17:20 24.32964 120.68171 14278 ft 394 kts 25°
2026-05-04 17:20 24.35381 120.69624 13735 ft 392 kts 25°
2026-05-04 17:21 24.40096 120.72459 12653 ft 385 kts 25°
2026-05-04 17:21 24.44747 120.75261 11619 ft 377 kts 25°
2026-05-04 17:22 24.47055 120.76651 11098 ft 374 kts 26°
2026-05-04 17:22 24.49291 120.78000 10824 ft 363 kts 26°
2026-05-04 17:23 24.55525 120.81764 10404 ft 322 kts 25°
2026-05-04 17:23 24.57506 120.82957 9924 ft 323 kts 26°
2026-05-04 17:23 24.61343 120.85272 9068 ft 309 kts 25°
2026-05-04 17:24 24.63209 120.86397 8695 ft 308 kts 25°
2026-05-04 17:24 24.68846 120.89803 7581 ft 306 kts 25°
2026-05-04 17:25 24.70717 120.90935 7266 ft 303 kts 26°
2026-05-04 17:25 24.74395 120.93162 6509 ft 300 kts 25°
2026-05-04 17:26 24.77911 120.95280 5954 ft 275 kts 26°
2026-05-04 17:26 24.82852 120.98283 5239 ft 270 kts 27°
2026-05-04 17:27 24.86118 121.00267 4998 ft 268 kts 27°
2026-05-04 17:27 24.89376 121.02246 4582 ft 260 kts 27°
2026-05-04 17:28 24.92135 121.04572 4172 ft 243 kts 50°
2026-05-04 17:29 24.95185 121.08557 3315 ft 209 kts 48°
2026-05-04 17:29 24.97805 121.11873 2532 ft 178 kts 46°
2026-05-04 17:30 25.00197 121.14898 1852 ft 170 kts 50°
2026-05-04 17:31 25.01735 121.16845 1413 ft 164 kts 50°
2026-05-04 17:31 25.03705 121.19342 840 ft 130 kts 51°
2026-05-04 17:32 25.04883 121.20828 464 ft 127 kts 51°
2026-05-04 17:33 25.06738 121.23190 119 ft 122 kts 53°
2026-05-04 17:33 25.07373 121.23979 410 ft 154 kts 54°
2026-05-04 17:34 25.09723 121.26790 2782 ft 164 kts 46°
2026-05-04 17:34 25.10590 121.27701 3456 ft 185 kts 51°
2026-05-04 17:35 25.09943 121.30960 4896 ft 172 kts 171°
2026-05-04 17:35 25.07479 121.31685 4486 ft 196 kts 182°
2026-05-04 17:35 25.06134 121.31416 3932 ft 202 kts 207°
2026-05-04 17:36 25.04987 121.30460 3368 ft 215 kts 226°
2026-05-04 17:36 25.04030 121.29197 3063 ft 219 kts 231°
2026-05-04 17:36 25.03123 121.27859 2996 ft 219 kts 232°
2026-05-04 17:36 25.02206 121.26521 2992 ft 219 kts 230°
2026-05-04 17:37 25.01247 121.25230 2991 ft 219 kts 229°
2026-05-04 17:37 25.00260 121.23938 2997 ft 217 kts 230°
2026-05-04 17:37 24.99281 121.22720 2855 ft 211 kts 229°
2026-05-04 17:37 24.98311 121.21522 2572 ft 208 kts 230°
2026-05-04 17:38 24.97334 121.20319 2488 ft 209 kts 229°
2026-05-04 17:38 24.96381 121.19130 2501 ft 217 kts 229°
2026-05-04 17:38 24.95376 121.17820 2198 ft 227 kts 237°
2026-05-04 17:38 24.94933 121.16196 2004 ft 218 kts 270°
2026-05-04 17:39 24.96466 121.13856 1989 ft 192 kts 343°
2026-05-04 17:39 24.97798 121.13745 1991 ft 192 kts
2026-05-04 17:39 24.99081 121.14070 1989 ft 192 kts 24°
2026-05-04 17:40 25.00208 121.14846 1878 ft 192 kts 43°
2026-05-04 17:40 25.01068 121.15928 1656 ft 181 kts 52°
2026-05-04 17:40 25.01829 121.16962 1401 ft 169 kts 51°
2026-05-04 17:40 25.02568 121.17902 1173 ft 154 kts 49°
2026-05-04 17:41 25.03231 121.18742 992 ft 140 kts 49°
2026-05-04 17:41 25.03856 121.19534 809 ft 133 kts 53°
2026-05-04 17:41 25.04460 121.20298 631 ft 131 kts 50°
2026-05-04 17:41 25.05060 121.21057 415 ft 132 kts 51°
2026-05-04 17:42 25.05662 121.21819 274 ft 130 kts 51°
2026-05-04 17:42 25.06247 121.22554 109 ft 125 kts 53°
2026-05-04 17:42 25.06735 121.23183 101 ft 82 kts 48°
2026-05-04 17:42 25.06985 121.23500 101 ft 39 kts 49°
2026-05-04 17:43 25.07159 121.23675 100 ft 32 kts 30°
2026-05-04 17:43 25.07292 121.23736 102 ft 9 kts 18°
2026-05-04 17:43 25.07329 121.23749 102 ft 2 kts 18°
2026-05-04 17:43 25.07339 121.23753 102 ft 2 kts 18°
2026-05-04 17:44 25.07345 121.23755 101 ft 1 kts 18°
2026-05-04 17:44 25.07352 121.23758 102 ft 1 kts 18°
2026-05-04 17:44 25.07367 121.23752 102 ft 6 kts 332°
2026-05-04 17:44 25.07385 121.23713 103 ft 6 kts 280°
2026-05-04 17:45 25.07373 121.23672 104 ft 6 kts 238°
2026-05-04 17:45 25.07343 121.23629 103 ft 8 kts 230°
2026-05-04 17:45 25.07301 121.23576 105 ft 9 kts 229°
2026-05-04 17:45 25.07267 121.23534 106 ft 6 kts 228°
2026-05-04 17:46 25.07250 121.23513 106 ft 4 kts 228°
2026-05-04 17:46 25.07224 121.23481 120 ft 7 kts 228°
2026-05-04 17:46 25.07187 121.23434 103 ft 9 kts 230°
2026-05-04 17:46 25.07146 121.23380 105 ft 8 kts 229°
2026-05-04 17:47 25.07127 121.23356 106 ft 4 kts 229°
2026-05-04 17:47 25.07125 121.23353 104 ft 0 kts 229°
2026-05-04 17:50 25.07116 121.23343 104 ft 4 kts 228°
2026-05-04 17:50 25.07099 121.23315 106 ft 1 kts 248°
2026-05-04 17:50 25.07100 121.23304 105 ft 2 kts 271°
2026-05-04 17:50 25.07109 121.23280 105 ft 3 kts 300°
2026-05-04 17:51 25.07117 121.23269 105 ft 0 kts 310°
2026-05-04 17:51 25.07138 121.23246 105 ft 8 kts 317°
2026-05-04 17:51 25.07173 121.23211 106 ft 6 kts 319°
2026-05-04 17:51 25.07228 121.23180 106 ft 8 kts 354°
2026-05-04 17:52 25.07261 121.23201 106 ft 4 kts 43°
2026-05-04 17:52 25.07275 121.23218 106 ft 2 kts 49°
2026-05-04 17:52 25.07288 121.23234 107 ft 5 kts 49°
2026-05-04 17:52 25.07321 121.23273 103 ft 7 kts 38°
2026-05-04 17:53 25.07351 121.23273 105 ft 4 kts 340°
2026-05-04 17:53 25.07367 121.23259 105 ft 2 kts 319°
2026-05-04 17:53 25.07373 121.23253 105 ft 1 kts 319°
2026-05-04 17:53 25.07388 121.23240 105 ft 3 kts 319°
2026-05-04 17:54 25.07409 121.23219 107 ft 4 kts 319°
2026-05-04 17:54 25.07421 121.23207 105 ft 3 kts 319°
2026-05-04 17:54 25.07425 121.23204 105 ft 0 kts 319°